Tracking 19242 objects as of 15-Aug-2018
HD Live streaming from Space Station
objects crossing your sky now

FAST

Track FAST now!
10-day predictions
FAST is classified as:


NORAD ID: 24285
Int'l Code: 1996-049A
Perigee: 354.0 km
Apogee: 3,452.8 km
Inclination: 83.0 °
Period: 124.8 minutes
Semi major axis: 8274 km
RCS: 1.3393 m2 (large)
Launch date: August 21, 1996
Source: United States (US)
Launch site: AIR FORCE WESTERN TEST RANGE (AFWTR)

Designed to study Earth's aurora.
aabbcc
Your satellite tracking list
Your tracking list is empty




NASA's NSSDC Master Catalog

Two Line Element Set (TLE):
1 24285U 96049A   18226.85379893  .00001179  00000-0  92876-4 0  9994
2 24285  82.9627 136.6238 1872520 138.1968 237.8478 11.53455242899723
Source of the keplerian elements: AFSPC